Time,TemperatureF,DewpointF,PressureIn,WindDirection,WindDirectionDegrees,WindSpeedMPH,WindSpeedGustMPH,Humidity,HourlyPrecipIn,Conditions,Clouds,dailyrainin,SoftwareType,DateUTC
2013-11-15 00:12:00,43.0,-99.9,-100.00,WSW,247,1.0,-999.0,-999,0.00,,,0.00,,2013-11-15 06:12:00,
2013-11-15 00:23:00,43.0,-99.9,-100.00,WSW,247,1.0,-999.0,-999,0.00,,,0.00,,2013-11-15 06:23:00,
2013-11-15 00:44:00,43.0,-99.9,-100.00,SW,229,1.0,-999.0,-999,0.00,,,0.00,,2013-11-15 06:44:00,
2013-11-15 00:53:00,43.0,-99.9,-100.00,SW,229,1.0,-999.0,-999,0.00,,,0.00,,2013-11-15 06:53:00,
2013-11-15 01:12:00,42.0,-99.9,-100.00,WSW,256,1.0,-999.0,-999,0.00,,,0.00,,2013-11-15 07:12:00,
2013-11-15 01:22:00,42.0,-99.9,-100.00,WSW,256,1.0,-999.0,-999,0.00,,,0.00,,2013-11-15 07:22:00,
2013-11-15 01:42:00,43.0,-99.9,-100.00,South,183,1.0,-999.0,-999,0.00,,,0.00,,2013-11-15 07:42:00,
2013-11-15 01:52:00,43.0,-99.9,-100.00,South,183,1.0,-999.0,-999,0.00,,,0.00,,2013-11-15 07:52:00,
2013-11-15 02:11:00,42.0,-99.9,-100.00,South,176,1.0,-999.0,-999,0.00,,,0.00,,2013-11-15 08:11:00,
2013-11-15 02:22:00,42.0,-99.9,-100.00,South,176,1.0,-999.0,-999,0.00,,,0.00,,2013-11-15 08:22:00,
2013-11-15 02:42:00,43.0,-99.9,-100.00,SSE,152,2.0,-999.0,-999,0.00,,,0.00,,2013-11-15 08:42:00,
2013-11-15 02:52:00,43.0,-99.9,-100.00,SSE,152,2.0,-999.0,-999,0.00,,,0.00,,2013-11-15 08:52:00,
2013-11-15 03:12:00,46.0,-99.9,-100.00,SE,128,3.0,-999.0,-999,0.00,,,0.00,,2013-11-15 09:12:00,
2013-11-15 03:22:00,46.0,-99.9,-100.00,SE,128,3.0,-999.0,-999,0.00,,,0.00,,2013-11-15 09:22:00,
2013-11-15 03:43:00,46.0,-99.9,-100.00,ESE,116,2.0,-999.0,-999,0.00,,,0.00,,2013-11-15 09:43:00,
2013-11-15 03:54:00,46.0,-99.9,-100.00,ESE,116,2.0,-999.0,-999,0.00,,,0.00,,2013-11-15 09:54:00,
2013-11-15 04:12:00,46.0,-99.9,-100.00,ESE,123,2.0,-999.0,-999,0.00,,,0.00,,2013-11-15 10:12:00,
2013-11-15 04:23:00,46.0,-99.9,-100.00,ESE,123,2.0,-999.0,-999,0.00,,,0.00,,2013-11-15 10:23:00,
2013-11-15 04:43:00,47.0,-99.9,-100.00,ESE,123,3.0,-999.0,-999,0.00,,,0.00,,2013-11-15 10:43:00,
2013-11-15 04:52:00,47.0,-99.9,-100.00,ESE,123,3.0,-999.0,-999,0.00,,,0.00,,2013-11-15 10:52:00,
2013-11-15 05:12:00,46.0,-99.9,-100.00,SSE,148,3.0,-999.0,-999,0.00,,,0.00,,2013-11-15 11:12:00,
2013-11-15 05:23:00,46.0,-99.9,-100.00,SSE,148,3.0,-999.0,-999,0.00,,,0.00,,2013-11-15 11:23:00,
2013-11-15 05:42:00,47.0,-99.9,-100.00,SSE,166,2.0,-999.0,-999,0.00,,,0.00,,2013-11-15 11:42:00,
2013-11-15 05:52:00,47.0,-99.9,-100.00,SSE,166,2.0,-999.0,-999,0.00,,,0.00,,2013-11-15 11:52:00,
2013-11-15 06:12:00,47.0,-99.9,-100.00,ESE,122,1.0,-999.0,-999,0.00,,,0.00,,2013-11-15 12:12:00,
2013-11-15 06:22:00,47.0,-99.9,-100.00,ESE,122,1.0,-999.0,-999,0.00,,,0.00,,2013-11-15 12:22:00,
2013-11-15 06:42:00,47.0,-99.9,-100.00,SSE,150,1.0,-999.0,-999,0.00,,,0.00,,2013-11-15 12:42:00,
2013-11-15 06:52:00,47.0,-99.9,-100.00,SSE,150,1.0,-999.0,-999,0.00,,,0.00,,2013-11-15 12:52:00,
2013-11-15 07:11:00,47.0,-99.9,-100.00,ESE,103,1.0,-999.0,-999,0.00,,,0.00,,2013-11-15 13:11:00,
2013-11-15 07:22:00,47.0,-99.9,-100.00,ESE,103,1.0,-999.0,-999,0.00,,,0.00,,2013-11-15 13:22:00,
2013-11-15 07:42:00,47.0,-99.9,-100.00,SSE,150,2.0,-999.0,-999,0.00,,,0.00,,2013-11-15 13:42:00,
2013-11-15 07:52:00,47.0,-99.9,-100.00,SSE,150,2.0,-999.0,-999,0.00,,,0.00,,2013-11-15 13:52:00,
2013-11-15 08:12:00,47.0,-99.9,-100.00,SE,130,3.0,-999.0,-999,0.00,,,0.00,,2013-11-15 14:12:00,
2013-11-15 08:22:00,47.0,-99.9,-100.00,SE,130,3.0,-999.0,-999,0.00,,,0.00,,2013-11-15 14:22:00,
2013-11-15 08:30:00,47.0,-99.9,-100.00,SSE,168,1.0,-999.0,-999,0.00,,,0.00,,2013-11-15 14:30:00,
2013-11-15 08:42:00,47.0,-99.9,-100.00,SE,131,3.0,-999.0,-999,0.00,,,0.00,,2013-11-15 14:42:00,
2013-11-15 08:52:00,47.0,-99.9,-100.00,SE,131,3.0,-999.0,-999,0.00,,,0.00,,2013-11-15 14:52:00,
2013-11-15 09:12:00,47.0,-99.9,-100.00,SSE,168,1.0,-999.0,-999,0.00,,,0.00,,2013-11-15 15:12:00,
2013-11-15 09:22:00,47.0,-99.9,-100.00,SSE,168,1.0,-999.0,-999,0.00,,,0.00,,2013-11-15 15:22:00,
2013-11-15 10:13:00,47.0,-99.9,-100.00,ESE,120,2.0,-999.0,-999,0.00,,,0.00,,2013-11-15 16:13:00,
2013-11-15 10:23:00,47.0,-99.9,-100.00,ESE,120,2.0,-999.0,-999,0.00,,,0.00,,2013-11-15 16:23:00,
2013-11-15 10:43:00,47.0,-99.9,-100.00,SE,126,4.0,-999.0,-999,0.00,,,0.00,,2013-11-15 16:43:00,
2013-11-15 11:12:00,48.0,-99.9,-100.00,SE,144,2.0,-999.0,-999,0.00,,,0.00,,2013-11-15 17:12:00,
2013-11-15 11:22:00,48.0,-99.9,-100.00,SE,144,2.0,-999.0,-999,0.00,,,0.00,,2013-11-15 17:22:00,
2013-11-15 11:42:00,50.0,-99.9,-100.00,ESE,115,2.0,-999.0,-999,0.00,,,0.00,,2013-11-15 17:42:00,
2013-11-15 11:52:00,50.0,-99.9,-100.00,ESE,115,2.0,-999.0,-999,0.00,,,0.00,,2013-11-15 17:52:00,
2013-11-15 12:12:00,51.0,-99.9,-100.00,SE,127,5.0,-999.0,-999,0.00,,,0.00,,2013-11-15 18:12:00,
2013-11-15 12:23:00,51.0,-99.9,-100.00,SE,127,5.0,-999.0,-999,0.00,,,0.00,,2013-11-15 18:23:00,
2013-11-15 12:42:00,53.0,-99.9,-100.00,SE,134,6.0,-999.0,-999,0.00,,,0.00,,2013-11-15 18:42:00,
2013-11-15 12:52:00,53.0,-99.9,-100.00,SE,134,6.0,-999.0,-999,0.00,,,0.00,,2013-11-15 18:52:00,
2013-11-15 13:12:00,54.0,-99.9,-100.00,SE,140,3.0,-999.0,-999,0.00,,,0.00,,2013-11-15 19:12:00,
2013-11-15 13:22:00,54.0,-99.9,-100.00,SE,140,3.0,-999.0,-999,0.00,,,0.00,,2013-11-15 19:22:00,
2013-11-15 13:42:00,57.0,-99.9,-100.00,SSE,151,2.0,-999.0,-999,0.00,,,0.00,,2013-11-15 19:42:00,
2013-11-15 13:52:00,57.0,-99.9,-100.00,SSE,151,2.0,-999.0,-999,0.00,,,0.00,,2013-11-15 19:52:00,
2013-11-15 14:12:00,57.0,-99.9,-100.00,ESE,102,2.0,-999.0,-999,0.00,,,0.00,,2013-11-15 20:12:00,
2013-11-15 14:22:00,57.0,-99.9,-100.00,ESE,102,2.0,-999.0,-999,0.00,,,0.00,,2013-11-15 20:22:00,
2013-11-15 14:42:00,57.0,-99.9,-100.00,SE,145,4.0,-999.0,-999,0.00,,,0.00,,2013-11-15 20:42:00,
2013-11-15 14:52:00,57.0,-99.9,-100.00,SE,145,4.0,-999.0,-999,0.00,,,0.00,,2013-11-15 20:52:00,
2013-11-15 15:12:00,57.0,-99.9,-100.00,SE,129,7.0,-999.0,-999,0.00,,,0.00,,2013-11-15 21:12:00,
2013-11-15 15:22:00,57.0,-99.9,-100.00,SE,129,7.0,-999.0,-999,0.00,,,0.00,,2013-11-15 21:22:00,
2013-11-15 15:30:00,57.0,-99.9,-100.00,SSE,153,7.0,-999.0,-999,0.00,,,0.00,,2013-11-15 21:30:00,
2013-11-15 15:43:00,58.0,-99.9,-100.00,SE,135,7.0,-999.0,-999,0.00,,,0.00,,2013-11-15 21:43:00,
2013-11-15 15:55:00,58.0,-99.9,-100.00,SE,135,7.0,-999.0,-999,0.00,,,0.00,,2013-11-15 21:55:00,
2013-11-15 16:14:00,57.0,-99.9,-100.00,SSE,153,7.0,-999.0,-999,0.00,,,0.00,,2013-11-15 22:14:00,
2013-11-15 16:24:00,57.0,-99.9,-100.00,SSE,153,7.0,-999.0,-999,0.00,,,0.00,,2013-11-15 22:24:00,
2013-11-15 17:12:00,54.0,-99.9,-100.00,SSE,166,1.0,-999.0,-999,0.00,,,0.00,,2013-11-15 23:12:00,
2013-11-15 17:22:00,54.0,-99.9,-100.00,SSE,166,1.0,-999.0,-999,0.00,,,0.00,,2013-11-15 23:22:00,
2013-11-15 17:30:00,49.0,-99.9,-100.00,SW,225,1.0,-999.0,-999,0.00,,,0.00,,2013-11-15 23:30:00,
2013-11-15 17:43:00,51.0,-99.9,-100.00,South,171,1.0,-999.0,-999,0.00,,,0.00,,2013-11-15 23:43:00,
2013-11-15 17:53:00,51.0,-99.9,-100.00,South,171,1.0,-999.0,-999,0.00,,,0.00,,2013-11-15 23:53:00,
2013-11-15 18:11:00,49.0,-99.9,-100.00,SW,225,1.0,-999.0,-999,0.00,,,0.00,,2013-11-16 00:11:00,
2013-11-15 18:22:00,49.0,-99.9,-100.00,SW,225,1.0,-999.0,-999,0.00,,,0.00,,2013-11-16 00:22:00,
2013-11-15 19:12:00,52.0,-99.9,-100.00,SE,134,4.0,-999.0,-999,0.00,,,0.00,,2013-11-16 01:12:00,
2013-11-15 19:22:00,52.0,-99.9,-100.00,SE,134,4.0,-999.0,-999,0.00,,,0.00,,2013-11-16 01:22:00,
2013-11-15 19:42:00,51.0,-99.9,-100.00,SSE,153,5.0,-999.0,-999,0.00,,,0.00,,2013-11-16 01:42:00,
2013-11-15 19:52:00,51.0,-99.9,-100.00,SSE,153,5.0,-999.0,-999,0.00,,,0.00,,2013-11-16 01:52:00,
2013-11-15 20:12:00,51.0,-99.9,-100.00,SSE,154,4.0,-999.0,-999,0.00,,,-99.99,,2013-11-16 02:12:00,
2013-11-15 20:22:00,51.0,-99.9,-100.00,SSE,154,4.0,-999.0,-999,0.00,,,-99.99,,2013-11-16 02:22:00,
2013-11-15 20:42:00,51.0,-99.9,-100.00,SSE,147,6.0,-999.0,-999,0.00,,,0.00,,2013-11-16 02:42:00,
2013-11-15 20:52:00,51.0,-99.9,-100.00,SSE,147,6.0,-999.0,-999,0.00,,,0.00,,2013-11-16 02:52:00,
2013-11-15 21:12:00,50.0,-99.9,-100.00,SSE,150,5.0,-999.0,-999,0.00,,,0.00,,2013-11-16 03:12:00,
2013-11-15 21:22:00,50.0,-99.9,-100.00,SSE,150,5.0,-999.0,-999,0.00,,,0.00,,2013-11-16 03:22:00,
2013-11-15 21:44:00,50.0,-99.9,-100.00,SE,143,6.0,-999.0,-999,0.00,,,0.00,,2013-11-16 03:44:00,
2013-11-15 21:55:00,50.0,-99.9,-100.00,SE,143,6.0,-999.0,-999,0.00,,,0.00,,2013-11-16 03:55:00,
2013-11-15 22:14:00,49.0,-99.9,-100.00,ESE,122,6.0,-999.0,-999,0.00,,,0.00,,2013-11-16 04:14:00,
2013-11-15 22:24:00,49.0,-99.9,-100.00,ESE,122,6.0,-999.0,-999,0.00,,,0.00,,2013-11-16 04:24:00,
2013-11-15 22:43:00,49.0,-99.9,-100.00,ESE,113,5.0,-999.0,-999,0.00,,,0.00,,2013-11-16 04:43:00,
2013-11-15 22:53:00,49.0,-99.9,-100.00,ESE,113,5.0,-999.0,-999,0.00,,,0.00,,2013-11-16 04:53:00,
2013-11-15 23:13:00,48.0,-99.9,-100.00,SE,132,7.0,-999.0,-999,0.00,,,0.00,,2013-11-16 05:13:00,
2013-11-15 23:23:00,48.0,-99.9,-100.00,SE,132,7.0,-999.0,-999,0.00,,,0.00,,2013-11-16 05:23:00,
2013-11-15 23:44:00,49.0,-99.9,-100.00,SE,130,7.0,-999.0,-999,0.00,,,0.00,,2013-11-16 05:44:00,